Naples, Italy

3:36 AM CEST on August 30, 2016 (GMT +0200)
Capodichino Mil

Weather History for LIRN - May, 2013

Change the Weather History Date:

Friday, May 17, 2013

  Actual Average Record
Temperature  
Mean Temperature 64 °F -  
Max Temperature 69 °F 76 °F 87 °F (2001)
Min Temperature 60 °F 57 °F 50 °F (2012)
Growing Degree Days 14 (Base 50)    
Moisture  
Dew Point 57 °F    
Average Humidity 73    
Maximum Humidity 88    
Minimum Humidity 60    
Precipitation  
Precipitation 0.00 in 0.05 in - ()
Sea Level Pressure  
Sea Level Pressure 29.77 in    
Wind  
Wind Speed 8 mph ()    
Max Wind Speed 15 mph    
Max Gust Speed -    
Visibility 5.7 miles    
Events Rain    
Averages and records for this station are not official NWS values.
T = Trace of Precipitation, MM = Missing Value Source: Averaged Metar Reports

Daily Weather History Graph

Daily Weather History Graph

Search for Another Location

Airport or City:

Trip Planner

Search our weather history database for the weather conditions in past years. The results will help you decide how hot, cold, wet, or windy it might be!

Date:

Astronomy

May. 17, 2013 Rise Set
Actual Time 5:43 AM CEST 8:15 PM CEST
Civil Twilight 5:12 AM CEST 8:47 PM CEST
Nautical Twilight 4:33 AM CEST 9:26 PM CEST
Astronomical Twilight 3:49 AM CEST 10:10 PM CEST
Moon 11:59 AM CEST (5/17) 12:58 AM CEST (5/17)
Length of Visible Light 15h 34m
Length of Day
14h 32m
Waxing Crescent, 42% of the Moon is Illuminated
May 17
Waxing Crescent
May 18
First Quarter
May 25
Full
May 31
Last Quarter
Jun 8
New

Hourly Weather History & Observations

Time (CEST) Temp. Dew Point Humidity Pressure Visibility Wind Dir Wind Speed Gust Speed Precip Events Conditions
12:20 AM 68.0 °F 60.8 °F 78% 29.59 in - SSW 5.8 mph - N/A   Clear
12:50 AM 66.2 °F 60.8 °F 83% 29.59 in - SW 10.4 mph - N/A   Clear
1:20 AM 66.2 °F 59.0 °F 78% 29.62 in 6.2 mi SSW 5.8 mph - N/A   Partly Cloudy
1:50 AM 68.0 °F 59.0 °F 73% 29.62 in 6.2 mi SSW 8.1 mph - N/A   Scattered Clouds
2:20 AM 66.2 °F 59.0 °F 78% 29.62 in 6.2 mi SSW 5.8 mph - N/A   Scattered Clouds
2:50 AM 66.2 °F 59.0 °F 78% 29.62 in 6.2 mi SSW 5.8 mph - N/A   Scattered Clouds
3:20 AM 66.2 °F 60.8 °F 83% 29.62 in 6.2 mi South 3.5 mph - N/A   Scattered Clouds
3:50 AM 66.2 °F 60.8 °F 83% 29.62 in 6.2 mi South 5.8 mph - N/A   Scattered Clouds
4:20 AM 66.2 °F 60.8 °F 83% 29.62 in 6.2 mi South 5.8 mph - N/A   Scattered Clouds
4:50 AM 66.2 °F 60.8 °F 83% 29.62 in 6.2 mi SSW 6.9 mph - N/A   Scattered Clouds
5:20 AM 66.2 °F 60.8 °F 83% 29.62 in 6.2 mi SSW 8.1 mph - N/A   Scattered Clouds
5:50 AM 64.4 °F 60.8 °F 88% 29.62 in 3.7 mi SSW 8.1 mph - N/A   Scattered Clouds
6:50 AM 66.2 °F 60.8 °F 83% 29.65 in 3.7 mi SSW 10.4 mph - N/A   Scattered Clouds
7:20 AM 66.2 °F 60.8 °F 83% 29.68 in 5.0 mi South 9.2 mph - N/A   Mostly Cloudy
7:50 AM 66.2 °F 60.8 °F 83% 29.68 in 5.0 mi SSW 10.4 mph - N/A   Mostly Cloudy
8:20 AM 66.2 °F 60.8 °F 83% 29.71 in 5.0 mi SSW 9.2 mph - N/A   Mostly Cloudy
8:50 AM 66.2 °F 60.8 °F 83% 29.71 in 3.7 mi South 8.1 mph - N/A   Mostly Cloudy
9:20 AM 66.2 °F 60.8 °F 83% 29.74 in 3.7 mi SSW 11.5 mph - N/A Rain Light Rain
9:50 AM 64.4 °F 59.0 °F 83% 29.74 in 3.7 mi SSW 12.7 mph - N/A Rain Rain
10:20 AM 64.4 °F 57.2 °F 77% 29.74 in 5.0 mi SW 6.9 mph - N/A Rain Light Rain
10:50 AM 68.0 °F 59.0 °F 73% 29.77 in 6.2 mi SSW 8.1 mph - N/A   Mostly Cloudy
11:20 AM 68.0 °F 60.8 °F 78% 29.77 in 6.2 mi SSW 9.2 mph - N/A   Mostly Cloudy
11:50 AM 69.8 °F 60.8 °F 73% 29.80 in 6.2 mi SSW 11.5 mph - N/A   Mostly Cloudy
12:20 PM 69.8 °F 59.0 °F 68% 29.80 in 6.2 mi SSW 13.8 mph - N/A   Mostly Cloudy
12:50 PM 69.8 °F 57.2 °F 64% 29.80 in 6.2 mi SSW 13.8 mph - N/A   Mostly Cloudy
1:20 PM 69.8 °F 55.4 °F 60% 29.80 in 6.2 mi SSW 13.8 mph - N/A   Mostly Cloudy
1:50 PM 69.8 °F 57.2 °F 64% 29.80 in 6.2 mi SSW 15.0 mph - N/A   Mostly Cloudy
2:20 PM 69.8 °F 59.0 °F 68% 29.83 in 6.2 mi SSW 12.7 mph - N/A   Mostly Cloudy
2:50 PM 69.8 °F 55.4 °F 60% 29.83 in 6.2 mi SSW 12.7 mph - N/A   Mostly Cloudy
3:20 PM 68.0 °F 55.4 °F 64% 29.83 in 6.2 mi SSW 11.5 mph - N/A   Scattered Clouds
3:50 PM 69.8 °F 55.4 °F 60% 29.83 in 6.2 mi SSW 12.7 mph - N/A   Scattered Clouds
4:20 PM 68.0 °F 55.4 °F 64% 29.83 in 6.2 mi SSW 10.4 mph - N/A   Partly Cloudy
4:50 PM 69.8 °F 55.4 °F 60% 29.83 in 6.2 mi SSW 11.5 mph - N/A   Partly Cloudy
5:20 PM 68.0 °F 53.6 °F 60% 29.83 in - South 11.5 mph - N/A   Clear
5:50 PM 68.0 °F 55.4 °F 64% 29.86 in - SW 11.5 mph - N/A   Clear
6:20 PM 68.0 °F 55.4 °F 64% 29.86 in - SSW 10.4 mph - N/A   Clear
6:50 PM 68.0 °F 55.4 °F 64% 29.86 in - SSW 11.5 mph - N/A   Clear
7:20 PM 66.2 °F 53.6 °F 64% 29.86 in 6.2 mi SW 8.1 mph - N/A   Partly Cloudy
7:50 PM 66.2 °F 53.6 °F 64% 29.89 in 6.2 mi SW 10.4 mph - N/A   Partly Cloudy
8:20 PM 64.4 °F 53.6 °F 68% 29.89 in 6.2 mi SW 9.2 mph - N/A   Partly Cloudy
8:50 PM 64.4 °F 53.6 °F 68% 29.89 in 6.2 mi SW 8.1 mph - N/A   Partly Cloudy
9:20 PM 64.4 °F 53.6 °F 68% 29.92 in 6.2 mi SW 6.9 mph - N/A   Partly Cloudy
9:50 PM 62.6 °F 53.6 °F 72% 29.92 in 6.2 mi West 6.9 mph - N/A   Partly Cloudy
10:20 PM 62.6 °F 53.6 °F 72% 29.92 in - West 5.8 mph - N/A   Clear
10:50 PM 60.8 °F 51.8 °F 72% 29.95 in - West 5.8 mph - N/A   Clear
11:20 PM 60.8 °F 51.8 °F 72% 29.95 in - West 5.8 mph - N/A   Clear
11:50 PM 62.6 °F 53.6 °F 72% 29.95 in - WSW 5.8 mph - N/A   Clear